Weather History for KSTE - June, 2013

Change the Weather History Date:

Wednesday, June 19, 2013

  Actual Average Record
Temperature  
Mean Temperature 56 °F -  
Max Temperature 74 °F 75 °F 92 °F (1953)
Min Temperature 39 °F 54 °F 39 °F (2013)
Degree Days  
Heating Degree Days 8    
Growing Degree Days 6 (Base 50)    
Moisture  
Dew Point 45 °F    
Average Humidity 61    
Maximum Humidity 95    
Minimum Humidity 34    
Precipitation  
Precipitation 0.00 in - - ()
Sea Level Pressure  
Sea Level Pressure 30.11 in    
Wind  
Wind Speed 2 mph (SSW)    
Max Wind Speed 10 mph    
Max Gust Speed -    
Visibility 10 miles    
Events      
Averages and records for this station are not official NWS values.
T = Trace of Precipitation, MM = Missing Value Source: NWS Daily Summary

Daily Weather History Graph

Daily Weather History Graph

Search for Another Location

Airport or City:

Trip Planner

Search our weather history database for the weather conditions in past years. The results will help you decide how hot, cold, wet, or windy it might be!

Date:

Astronomy

Jun. 19, 2013 Rise Set
Actual Time 5:12 AM CDT 8:46 PM CDT
Civil Twilight 4:35 AM CDT 9:23 PM CDT
Nautical Twilight 3:47 AM CDT 10:12 PM CDT
Astronomical Twilight 2:43 AM CDT 11:15 PM CDT
Moon 4:32 PM CDT (6/19) 2:05 AM CDT (6/19)
Length of Visible Light 16h 47m
Length of Day
15h 33m
Waxing Gibbous, 80% of the Moon is Illuminated
Jun 19
Waxing Gibbous
Jun 23
Full
Jun 29
Last Quarter
Jul 8
New
Jul 15
First Quarter

Hourly Weather History & Observations

Time (CDT) Temp. Windchill Dew Point Humidity Pressure Visibility Wind Dir Wind Speed Gust Speed Precip Events Conditions
12:15 AM 46.6 °F - 43.0 °F 87% 30.13 in 10.0 mi Calm Calm - N/A   Clear
12:35 AM 47.1 °F - 42.8 °F 85% 30.13 in 10.0 mi Calm Calm - N/A   Clear
12:55 AM 45.1 °F - 42.1 °F 89% 30.13 in 10.0 mi Calm Calm - N/A   Clear
1:15 AM 46.0 °F - 42.3 °F 87% 30.14 in 10.0 mi Calm Calm - N/A   Clear
1:35 AM 44.8 °F - 41.7 °F 89% 30.13 in 10.0 mi Calm Calm - N/A   Clear
1:55 AM 44.6 °F - 41.9 °F 90% 30.13 in 10.0 mi Calm Calm - N/A   Clear
2:15 AM 45.3 °F - 41.9 °F 88% 30.13 in 10.0 mi Calm Calm - N/A   Clear
2:35 AM 43.2 °F - 40.8 °F 91% 30.13 in 10.0 mi Calm Calm - N/A   Clear
2:55 AM 43.0 °F - 41.0 °F 93% 30.14 in 10.0 mi Calm Calm - N/A   Clear
3:15 AM 42.6 °F - 40.6 °F 93% 30.14 in 10.0 mi Calm Calm - N/A   Clear
3:35 AM 41.0 °F 39.0 °F 39.2 °F 93% 30.14 in 10.0 mi NE 3.5 mph - N/A   Clear
3:55 AM 39.6 °F - 38.3 °F 95% 30.14 in 10.0 mi Calm Calm - N/A   Clear
4:15 AM 39.6 °F - 38.3 °F 95% 30.13 in 10.0 mi Calm Calm - N/A   Clear
4:35 AM 40.1 °F - 38.3 °F 93% 30.13 in 10.0 mi Calm Calm - N/A   Clear
4:55 AM 39.2 °F - 37.8 °F 95% 30.13 in 10.0 mi Calm Calm - N/A   Clear
5:15 AM 40.1 °F - 37.8 °F 91% 30.13 in 10.0 mi Calm Calm - N/A   Clear
5:35 AM 40.3 °F - 38.5 °F 93% 30.13 in 10.0 mi Calm Calm - N/A   Clear
5:55 AM 40.5 °F - 38.7 °F 93% 30.14 in 10.0 mi Calm Calm - N/A   Clear
6:15 AM 43.3 °F - 41.2 °F 92% 30.15 in 10.0 mi Calm Calm - N/A   Clear
6:35 AM 46.4 °F - 41.9 °F 84% 30.14 in 10.0 mi Calm Calm - N/A   Clear
6:55 AM 49.1 °F - 43.0 °F 79% 30.15 in 10.0 mi Calm Calm - N/A   Clear
7:15 AM 52.7 °F - 44.2 °F 73% 30.16 in 10.0 mi Calm Calm - N/A   Clear
7:35 AM 55.4 °F - 43.5 °F 64% 30.15 in 10.0 mi Calm Calm - N/A   Clear
7:55 AM 57.4 °F - 41.4 °F 55% 30.16 in 10.0 mi SE 4.6 mph - N/A   Clear
8:15 AM 59.2 °F - 41.9 °F 53% 30.16 in 10.0 mi Calm Calm - N/A   Clear
8:35 AM 60.3 °F - 39.4 °F 46% 30.16 in 10.0 mi South 4.6 mph - N/A   Clear
8:55 AM 61.5 °F - 39.9 °F 45% 30.16 in 10.0 mi South 4.6 mph - N/A   Clear
9:15 AM 62.6 °F - 37.0 °F 39% 30.16 in 10.0 mi SSE 4.6 mph - N/A   Clear
9:35 AM 63.5 °F - 35.6 °F 35% 30.16 in 10.0 mi SW 5.8 mph - N/A   Clear
9:55 AM 64.0 °F - 37.9 °F 38% 30.15 in 10.0 mi SSE 4.6 mph - N/A   Scattered Clouds
10:15 AM 65.5 °F - 37.9 °F 36% 30.14 in 10.0 mi South 4.6 mph - N/A   Scattered Clouds
10:35 AM 65.8 °F - 36.7 °F 34% 30.15 in 10.0 mi WSW 3.5 mph - N/A   Clear
10:55 AM 66.4 °F - 39.6 °F 37% 30.15 in 10.0 mi SW 5.8 mph - N/A   Clear
11:15 AM 66.7 °F - 39.9 °F 37% 30.15 in 10.0 mi Calm Calm - N/A   Mostly Cloudy
11:35 AM 67.8 °F - 40.8 °F 37% 30.14 in 10.0 mi South 5.8 mph - N/A   Mostly Cloudy
11:55 AM 68.7 °F - 42.6 °F 39% 30.14 in 10.0 mi Calm Calm - N/A   Scattered Clouds
12:15 PM 69.1 °F - 44.2 °F 41% 30.13 in 10.0 mi SW 3.5 mph - N/A   Scattered Clouds
12:35 PM 69.4 °F - 44.6 °F 41% 30.12 in 10.0 mi South 8.1 mph - N/A   Clear
12:55 PM 70.3 °F - 45.1 °F 40% 30.12 in 10.0 mi SE 4.6 mph - N/A   Clear
1:15 PM 71.1 °F - 45.7 °F 40% 30.11 in 10.0 mi WSW 8.1 mph - N/A   Clear
1:35 PM 71.6 °F - 46.4 °F 41% 30.11 in 10.0 mi South 6.9 mph - N/A   Clear
1:55 PM 71.4 °F - 46.2 °F 41% 30.10 in 10.0 mi SSE 4.6 mph - N/A   Scattered Clouds
2:15 PM 71.8 °F - 47.1 °F 41% 30.10 in 10.0 mi SSW 3.5 mph - N/A   Scattered Clouds
2:35 PM 73.2 °F - 47.7 °F 40% 30.10 in 10.0 mi South 4.6 mph - N/A   Mostly Cloudy
2:55 PM 72.3 °F - 47.5 °F 41% 30.09 in 10.0 mi South 8.1 mph - N/A   Mostly Cloudy
3:15 PM 72.3 °F - 47.7 °F 41% 30.09 in 10.0 mi SSE 4.6 mph - N/A   Mostly Cloudy
3:35 PM 73.2 °F - 48.7 °F 42% 30.09 in 10.0 mi South 8.1 mph - N/A   Mostly Cloudy
3:55 PM 74.1 °F - 49.1 °F 41% 30.08 in 10.0 mi WSW 10.4 mph - N/A   Mostly Cloudy
4:15 PM 74.3 °F - 49.6 °F 42% 30.08 in 10.0 mi West 4.6 mph - N/A   Scattered Clouds
4:35 PM 74.5 °F - 49.6 °F 42% 30.07 in 10.0 mi SSW 6.9 mph - N/A   Mostly Cloudy
4:55 PM 73.9 °F - 49.8 °F 43% 30.07 in 10.0 mi SW 3.5 mph - N/A   Scattered Clouds
5:15 PM 73.4 °F - 49.6 °F 43% 30.06 in 10.0 mi SSW 8.1 mph - N/A   Scattered Clouds
5:35 PM 73.6 °F - 49.8 °F 43% 30.07 in 10.0 mi SW 5.8 mph - N/A   Mostly Cloudy
5:55 PM 74.3 °F - 50.4 °F 43% 30.06 in 10.0 mi SSW 6.9 mph - N/A   Scattered Clouds
6:15 PM 74.7 °F - 50.4 °F 42% 30.06 in 10.0 mi WSW 5.8 mph - N/A   Mostly Cloudy
6:35 PM 73.8 °F - 50.4 °F 44% 30.06 in 10.0 mi West 4.6 mph - N/A   Scattered Clouds
6:55 PM 73.9 °F - 51.3 °F 45% 30.06 in 10.0 mi Calm Calm - N/A   Scattered Clouds
7:15 PM 73.4 °F - 51.4 °F 46% 30.06 in 10.0 mi Calm Calm - N/A   Scattered Clouds
7:35 PM 73.6 °F - 50.5 °F 44% 30.06 in 10.0 mi SW 4.6 mph - N/A   Clear
7:55 PM 72.1 °F - 50.5 °F 46% 30.06 in 10.0 mi SW 4.6 mph - N/A   Clear
8:15 PM 70.7 °F - 52.0 °F 51% 30.06 in 10.0 mi South 4.6 mph - N/A   Scattered Clouds
8:35 PM 69.3 °F - 51.8 °F 54% 30.06 in 10.0 mi South 4.6 mph - N/A   Clear
8:55 PM 67.3 °F - 51.8 °F 58% 30.06 in 10.0 mi South 3.5 mph - N/A   Scattered Clouds
9:15 PM 67.1 °F - 51.8 °F 58% 30.07 in 10.0 mi Calm Calm - N/A   Scattered Clouds
9:35 PM 62.6 °F - 52.9 °F 70% 30.08 in 10.0 mi Calm Calm - N/A   Scattered Clouds
9:55 PM 62.2 °F - 54.7 °F 76% 30.09 in 10.0 mi Calm Calm - N/A   Mostly Cloudy
10:15 PM 62.4 °F - 53.6 °F 73% 30.09 in 10.0 mi Calm Calm - N/A   Scattered Clouds
10:35 PM 62.1 °F - 53.6 °F 74% 30.09 in 10.0 mi Calm Calm - N/A   Clear
10:55 PM 59.7 °F - 53.6 °F 80% 30.10 in 10.0 mi Calm Calm - N/A   Clear
11:15 PM 61.0 °F - 53.2 °F 76% 30.09 in 10.0 mi Calm Calm - N/A   Clear
11:35 PM 58.3 °F - 53.2 °F 83% 30.09 in 10.0 mi Calm Calm - N/A   Clear
11:55 PM 57.4 °F - 52.7 °F 84% 30.10 in 10.0 mi Calm Calm - N/A   Clear